Location: Liscomb Game Sanctuary
(45.1633°N, 62.5575°W)
Time: 13:20:34
(UTC-04:00)

Daily predictions for brighter satellites

Satellite Brightness Start Highest point End
(mag) Time Altitude Azimuth Time Altitude Azimuth Time Altitude Azimuth
Cosmos 2082 Rocket 4.4 18:13:07 10° W 18:17:38 24° NW 18:22:12 10° N
ALOS 3.1 18:16:35 10° SE 18:20:34 29° ENE 18:24:34 10° N
SL-16 R/B 2.5 18:14:53 10° NNW 18:20:34 75° WSW 18:26:13 10° SSE
Spot 2 Rocket 4.5 18:19:20 10° ESE 18:23:27 26° ENE 18:27:36 10° N
Okean 2 Rocket 3.6 18:24:35 10° SSW 18:29:00 65° W 18:33:25 10° N
Cosmos 1709 Rocket 4.2 18:23:32 10° SSE 18:29:29 49° E 18:35:23 10° NNE
Cosmos 1340 3.0 18:26:57 10° N 18:30:37 44° ENE 18:34:15 10° SSE
USA 215 4.2 18:27:09 10° NE 18:33:14 43° NNW 18:39:19 10° W
FREGAT/IRIS 3.0 18:31:00 10° SSE 18:33:57 44° ENE 18:36:55 10° N
Cosmos 2322 Rocket 3.1 18:31:32 10° NW 18:37:00 54° WSW 18:42:26 10° S
Helios 1B rocket 4.3 18:41:53 12° ESE 18:41:53 12° ESE 18:42:44 10° ESE
Cosmos 1954 Rocket 4.1 18:36:02 10° S 18:41:04 53° ESE 18:46:09 10° NNE
Meteor 1-20 Rocket 4.4 18:37:00 10° SSW 18:42:50 83° WNW 18:48:43 10° N
Meteor 1-28 Rocket 3.6 18:40:26 10° N 18:44:14 70° WNW 18:48:01 10° SSW
Meteor 1-19 Rocket 4.3 18:39:15 10° N 18:44:49 55° ENE 18:50:27 10° SSE
TSX-5 3.3 18:43:10 10° SSW 18:46:15 58° ESE 18:49:30 10° NE
FENGYUN 3A 3.8 18:42:18 10° SE 18:47:32 52° ENE 18:52:47 10° N
Cosmos 2151 Rocket 3.7 18:43:36 10° S 18:48:06 86° W 18:52:40 10° N
Okean 1 Rocket 3.6 18:45:11 10° SSE 18:49:18 37° E 18:53:27 10° NNE
SJ-6B 2.7 18:45:22 10° SSE 18:49:21 74° ENE 18:53:17 10° N
HJ-1C 3.7 18:46:41 10° SE 18:49:55 43° ENE 18:53:09 10° N
Genesis I 3.6 18:46:11 10° NNW 18:49:58 42° NE 18:53:01 14° ESE
Tiangong 2 3.7 18:48:59 10° WSW 18:50:58 16° SSW 18:52:55 10° SSE
USA 186 3.9 18:53:11 11° NE 18:53:11 11° NE 18:53:26 10° NE
Gbstr 26 Del rocket 3.6 18:48:54 10° SSW 18:52:17 31° SE 18:54:17 19° E
Cosmos 2322 3.7 18:47:30 10° NNW 18:53:15 74° ENE 18:58:57 10° SSE
Cosmos 1238 Rocket 1.9 18:54:31 10° N 18:57:32 71° E 19:00:28 10° SSE
NOAA 12 4.5 18:53:47 10° S 18:59:05 70° WSW 19:04:26 10° NNW
Meteor 1-13 Rocket 4.2 18:56:14 10° N 19:01:49 85° E 19:07:27 10° S
GEOS 3 Rocket 4.0 18:58:52 10° NE 19:03:52 44° ESE 19:08:53 10° SSW
Cosmos 1025 Rocket 3.5 19:03:08 10° N 19:07:16 39° ENE 19:11:23 10° SE
SL-19 R/B 4.3 19:02:41 10° SSE 19:08:19 70° ENE 19:14:23 10° NNW
COSMOS 2428 2.8 19:02:53 10° NNW 19:08:29 54° ENE 19:13:31 13° SE
Meteor 1-23 Rocket 4.4 19:02:58 10° N 19:08:39 52° ENE 19:14:14 10° SSE
Cosmos 2237 4.2 19:03:03 10° NNW 19:08:48 67° ENE 19:14:29 10° SE
Cosmos 2333 4.5 19:04:20 10° NNW 19:09:54 49° ENE 19:14:20 16° SE
Cosmos 405 Rocket 4.1 19:06:48 10° NNE 19:09:44 22° ENE 19:09:44 22° ENE
CZ-2D R/B 3.6 19:08:11 15° SE 19:10:57 40° ENE 19:14:34 10° N
Meteor 2-4 Rocket 3.6 19:05:42 10° N 19:11:15 65° ENE 19:16:37 10° SSE
Cosmos 2237 Rocket 3.4 19:07:53 10° N 19:12:27 24° NE 19:14:01 21° ENE
Okean 1-7 Rocket 3.6 19:08:28 10° N 19:12:59 60° E 19:17:25 10° SSE
H-2A R/B 2.6 19:12:39 10° SSE 19:16:19 62° ENE 19:20:02 10° N
Cosmos 1536 2.8 19:12:25 10° S 19:16:20 57° E 19:20:15 10° NNE
Cosmos 1023 Rocket 4.4 19:12:31 10° SSW 19:17:37 85° ESE 19:22:47 10° NNE
NOSS 0 Rocket 4.5 19:16:12 10° NNW 19:21:53 37° NE 19:24:21 27° E
Cosmos 1633 3.2 19:18:36 10° SSW 19:22:14 57° W 19:25:54 10° N
Cosmos 1741 Rocket 4.0 19:19:19 10° S 19:24:26 60° ESE 19:29:35 10° NNE
Cosmos 1818 4.4 19:22:27 10° SW 19:27:44 51° NW 19:33:05 10° NNE
Cosmos 2360 Rocket 2.9 19:22:22 10° NW 19:27:52 54° WSW 19:33:22 10° S
Cosmos 2219 Rocket 2.5 19:24:23 10° NNW 19:29:47 45° ENE 19:31:49 32° ESE
Cosmos 2219 3.2 19:25:36 10° S 19:31:12 56° ESE 19:36:49 10° NNE
Cosmos 1570 Rocket 4.1 19:32:40 10° NNW 19:37:53 77° WSW 19:43:07 10° SSE
Meteor 1-11 Rocket 4.2 19:34:28 10° SSW 19:40:15 67° WNW 19:46:11 10° N
SL-16 R/B 3.7 19:41:36 10° N 19:45:26 20° NE 19:45:26 20° NE
Cosmos 1140 Rocket 4.2 19:43:12 10° SW 19:48:13 54° WNW 19:53:19 10° NNE
Cosmos 1610 Rocket 4.4 19:43:10 10° S 19:49:16 61° E 19:55:21 10° NNE
Resurs 01 Rocket 2.5 19:45:31 10° S 19:49:47 49° W 19:54:05 10° NNW
Spot 1 4.0 19:53:23 34° S 19:55:05 74° WSW 19:59:15 10° NNW
Cosmos 2327 Rocket 4.4 19:49:00 10° S 19:55:14 90° ESE 20:01:37 10° N
Cosmos 614 Rocket 4.4 19:51:03 10° SW 19:56:03 60° WNW 20:01:06 10° NNE
ALOS 3.9 19:53:41 10° SSW 19:57:54 34° W 20:02:10 10° NNW
Cosmos 468 Rocket 3.9 19:53:31 10° NNW 19:58:44 64° ENE 19:59:15 61° E
SJ-11-01 4.4 20:03:22 57° NE 20:03:22 57° NE 20:07:31 10° N
Cosmos 2333 Rocket 2.2 19:57:39 10° NNW 20:03:24 66° ENE 20:04:11 59° ESE
USA 229 DEB 3.8 19:56:24 10° NW 20:03:34 83° SW 20:07:02 34° SSE
USA 229 3.8 19:56:30 10° NW 20:03:40 84° SW 20:07:06 35° SSE
Helios 1A 3.4 20:04:17 36° SSW 20:05:48 59° W 20:09:55 10° NNW
Cosmos 1980 3.7 20:05:42 10° NNW 20:11:16 62° ENE 20:11:16 62° ENE
Cosmos 2074 Rocket 4.4 20:08:34 10° SSW 20:14:45 62° W 20:21:00 10° N
USA 215 4.5 20:12:28 23° NE 20:15:18 31° N 20:20:53 10° WNW
NOSS 3-1 (A) 4.2 20:08:56 10° NNW 20:16:10 53° NE 20:17:30 48° ENE
Cosmos 1814 Rocket 4.1 20:11:05 10° NNW 20:15:32 60° NNE 20:15:32 60° NNE
Helios 1B rocket 3.6 20:12:32 10° N 20:18:13 35° SW 20:20:44 10° SSW
Cosmos 2184 Rocket 4.5 20:11:29 10° SSW 20:17:43 61° WNW 20:23:55 10° N
Envisat 2.9 20:18:30 85° NNE 20:18:30 85° NNE 20:23:31 10° NNW
ATLAS 2AS CENTAUR R/B 4.1 20:14:29 10° NNW 20:21:20 28° NNE 20:22:51 27° NE
Okean 2 4.3 20:17:39 10° NNW 20:21:39 46° W 20:22:00 45° WSW
ERS-1 Rocket 3.9 20:25:25 38° N 20:25:25 38° N 20:28:36 10° N
Cosmos 1892 Rocket 4.4 20:25:37 10° NNW 20:29:15 48° WNW 20:29:15 48° WNW
Nadezhda 3 Rocket 4.0 20:29:08 10° NNW 20:35:18 76° W 20:36:37 56° SSW
NOSS 3-1 (C) 3.9 20:28:25 10° NW 20:35:56 78° NE 20:36:56 68° ESE
H-2A R/B 4.4 20:43:45 14° NNE 20:43:45 14° NNE 20:44:38 10° N
Cosmos 2341 Rocket 4.3 20:42:07 55° NNE 20:42:07 55° NNE 20:47:01 10° N
Cosmos 2154 Rocket 4.2 20:40:20 10° SSW 20:46:39 69° W 20:52:59 10° N
Cosmos 2237 Rocket 2.8 20:51:21 10° NNW 20:55:53 53° WNW 20:55:53 53° WNW
Cosmos 2219 Rocket 3.7 21:08:45 10° NW 21:13:31 29° WSW 21:13:36 29° WSW
SL-16 R/B 4.0 21:24:53 10° NNW 21:27:20 27° NNW 21:27:20 27° NNW
Cosmos 2333 Rocket 4.4 21:43:02 10° NW 21:46:14 20° W 21:46:14 20° W
ATLAS 2AS CENTAUR R/B 4.1 22:05:40 10° NW 22:10:17 37° NNW 22:10:17 37° NNW
